Aeroporto :
LOGIN :

Iscrizione | Disclaimer

   EN    FR    IT 

 










Sommario :    VFR   VFR Marginale   IFR   IFR Intensivo   IFR Molto Intensivo
Visibilità : 
Base nubi : 
>= 8 km
>= 3000ft
5 / 8 km
1000 / 3000 ft
1500m / 5 km
500 / 1000 ft
800 / 1500m
200 / 500 ft
< 800m
< 200 ft
Simboli :   Temporali  Nebbia  Neve Forte  Precipitazioni Forti  Vento > 20 kt
SIGMETs :   Varie  Temporali  Ghiacco  Turbolenza  Onda orograficha  Ceneri Vulcaniche






- Altitudine del aeroporto : 290 ft
- Codice IATA : LAI


LFRO - Lannion

ULTIMO METAR :
  • 291230Z AUTO 27007KT 210V300 9999 FEW022 BKN072 18/12 Q1019

METARs OBSOLETI :
  • 291200Z AUTO 27005KT 230V330 9999 BKN020 BKN048 17/13 Q1019
  • 291130Z AUTO 28005KT 250V310 9999 FEW025 16/12 Q1020
  • 291100Z AUTO 27008KT 9999 FEW016 SCT024 16/13 Q1020
  • 291030Z AUTO 27007KT 9999 FEW019 SCT025 BKN031 16/13 Q1020
  • 291000Z AUTO 26006KT 230V300 9999 FEW013 SCT023 BKN030 16/13 Q1020

Previsioni scadute.



MetMap, La meteo Aeronautica in un colpo d'occhio ! - Copyright ORBIFLY Dicembre 2007 - Disclaimer

ORBIFLY MET'MAP TEAM :

Programmazione e sviluppo : Alexandra Zaïnal
Concezione : Baudouin d'Aumeries
Aiuto per la programmazione : Marc-Olivier Méhu
Supporto tecnico e logistico : Manuel Goepfert
Aiuto per la traduzione : Arnaldo La Scala

Contatto : metmap@orbifly.com




FONTI E CREDITI :

   NOAA